User: anonymous   Login
Location: Unspecified
(0.0000°N, 0.0000°E)
Time: 21:25:44
(UTC+02:00)
Language:

Cosmos 1437 - Orbit

View from above orbital plane
View from above orbital plane
View from above satellite
View from above satellite

Ground track
Ground track

The orbit data is extracted from the following two-line orbital elements,

1 13770U 83003A   15212.53718001  .00007694  00000-0  18682-3 0  9992
2 13770 081.1611 265.5394 0009644 142.3557 338.8635 15.40805236780399
Epoch (UTC): 31 July 2015 12:53:32
Eccentricity: 0.0009644
inclination: 81.1611°
perigee height: 437 km
apogee height: 450 km
right ascension of ascending node: 265.5394°
argument of perigee: 142.3557°
revolutions per day: 15.40805236
mean anomaly at epoch: 338.8635°
orbit number at epoch: 78039

The dashed part of the orbit path shows where the satellite is in the earth's shadow,  

DLR